Theta_e
307 300 296 299 300 296 293 292 293 297 301 296 294 298 302 301 298 299 297 295 307 312 318 319 321 322 320 319 320 323 323 324 324 323 322 320 320 321 322 323 322 321 321 321
301 296 301 302 302 299 295 292 292 297 300 295 294 294 300 300 299 300 301 300 298 303 309 314 318 320 322 321 321 321 324 324 324 325 325 323 324 323 323 323 323 323 322 321
297 298 304 301 300 297 296 293 292 294 296 296 292 293 297 298 298 299 300 302 302 302 302 303 312 319 321 321 321 322 322 324 324 326 325 320 320 317 320 321 322 322 323 322
298 301 300 299 298 299 292 298 296 296 292 289 294 288 293 297 298 299 301 302 302 302 303 303 302 311 319 321 323 323 323 322 323 325 325 323 323 322 323 323 323 323 323 323
293 297 297 296 298 300 295 299 296 296 292 292 291 288 290 294 293 295 297 301 304 305 305 305 304 305 316 321 322 322 322 322 323 323 324 323 322 323 323 321 319 322 321 322
296 297 296 298 301 302 302 298 298 297 295 286 292 290 288 291 294 295 298 301 303 305 305 306 305 303 309 317 320 321 321 321 322 321 322 321 321 321 319 319 319 318 320 320
291 293 297 300 297 300 300 295 286 285 283 283 291 290 293 294 295 298 301 301 301 301 302 303 301 300 305 311 316 318 319 319 320 320 320 321 321 321 320 319 319 318 318 318
285 282 292 297 295 296 295 295 285 280 282 283 284 287 291 298 303 302 297 297 295 294 297 300 302 302 304 308 313 317 318 319 318 319 320 321 321 321 321 320 319 319 319 320
282 284 292 295 297 300 295 292 293 283 272 277 282 286 290 293 293 294 294 296 295 294 295 296 296 297 298 304 310 314 316 318 318 318 319 319 320 320 320 319 319 319 319 319
287 281 291 292 299 300 298 300 289 287 278 274 280 281 288 290 295 297 295 294 298 294 292 293 295 295 295 296 303 309 313 316 317 318 318 318 318 318 320 317 317 318 319 318
288 286 284 293 293 291 295 293 294 293 284 278 275 283 287 293 294 295 298 295 297 297 293 291 291 290 293 294 294 302 307 309 310 313 314 315 317 317 318 319 319 319 319 318
290 286 281 284 295 293 296 294 295 288 282 281 280 285 287 293 294 292 293 294 294 295 293 290 291 291 292 293 294 298 302 305 307 308 310 311 312 313 314 317 317 318 320 320
291 285 274 279 288 293 289 294 296 294 288 284 281 286 286 286 287 289 291 294 293 293 290 290 291 292 293 293 294 294 295 299 300 301 303 302 303 305 306 307 308 313 315 317
295 284 282 278 283 289 287 291 295 294 288 287 287 290 290 286 287 289 291 292 291 291 291 291 291 292 293 293 294 295 296 296 296 297 296 296 297 299 299 299 303 305 306 306
292 284 283 285 286 289 290 290 293 292 293 288 291 290 294 292 289 289 290 290 290 290 290 291 292 292 292 293 294 296 297 297 297 297 296 295 295 295 295 294 298 300 300 300
287 284 286 282 286 288 286 288 288 291 294 293 293 292 295 297 289 287 289 289 290 291 291 291 292 292 293 293 294 296 296 296 296 296 294 294 294 293 292 292 291 291 291 294
285 283 281 280 285 285 282 287 288 290 294 295 290 295 291 288 288 290 289 289 291 291 293 292 292 293 293 294 295 296 296 296 295 294 292 292 291 290 290 289 290 289 289 290
282 282 282 278 282 277 286 293 293 291 293 297 297 295 297 292 293 292 291 292 291 292 292 292 293 292 292 293 294 295 295 294 293 291 290 289 289 288 288 289 289 289 291 290
288 282 279 276 277 282 286 286 291 290 291 298 297 299 293 288 289 291 291 291 294 294 294 294 293 292 291 292 293 293 291 291 290 289 289 288 288 287 288 287 287 287 288 286
287 287 280 277 274 274 283 287 293 295 287 297 299 299 299 291 288 296 294 290 291 291 291 291 290 290 291 291 291 290 290 289 289 289 288 288 288 287 287 286 285 285 286 286
281 281 278 278 277 281 286 287 295 285 288 299 298 299 299 294 299 299 296 291 291 290 290 290 290 291 290 289 289 289 289 289 289 287 287 286 287 288 288 284 285 286 286 286
280 279 278 280 277 271 284 285 289 292 294 294 295 299 298 299 301 299 296 294 288 288 289 289 289 288 287 288 289 288 288 287 285 286 287 287 287 286 287 287 286 286 286 286
278 283 281 282 282 286 286 288 291 288 288 288 289 291 297 299 299 298 292 288 287 287 287 286 288 284 281 281 285 287 284 284 284 287 287 287 286 286 286 286 286 286 286 286
283 289 282 285 286 287 289 290 290 290 289 290 289 289 290 293 296 293 290 286 285 284 285 283 284 283 282 281 283 285 284 284 287 286 286 286 286 285 286 286 286 286 286 285
283 286 284 284 286 288 291 290 290 291 288 288 288 289 291 288 289 290 286 284 284 284 281 283 284 283 283 282 283 284 283 286 286 285 284 285 285 285 283 283 284 283 283 285
284 285 283 283 289 289 290 293 292 290 291 291 288 288 287 286 288 286 284 284 283 282 280 281 281 282 281 282 281 281 283 286 285 282 282 283 282 282 282 282 282 287 287 287
Wind_Speed
16 13 19 25 26 2 7 2 11 4 4 2 9 16 17 11 6 8 9 8 11 14 15 8 11 9 8 9 11 14 13 14 10 8 8 6 8 6 6 6 7 8 7 8
10 24 25 16 15 14 6 8 8 3 4 6 6 18 15 9 8 10 13 11 14 11 9 10 10 12 15 15 16 15 15 14 13 10 8 5 7 5 6 7 9 9 9 8
19 14 16 16 13 17 18 17 7 4 3 5 5 11 14 9 9 9 8 12 9 14 16 13 11 15 15 17 17 17 17 16 14 14 7 2 2 1 3 5 6 8 10 10
15 21 11 22 26 17 21 13 7 7 4 7 5 11 11 10 15 14 16 15 16 13 12 12 13 13 16 18 17 18 16 16 14 16 11 14 11 11 9 8 7 8 11 12
11 3 20 18 21 14 13 11 10 7 7 3 5 6 7 8 10 9 12 16 17 18 18 19 18 16 15 16 16 16 16 15 16 16 16 12 13 10 7 6 7 9 8 10
12 2 0 21 18 16 5 11 5 3 9 11 14 12 6 10 11 7 9 17 18 18 17 17 13 11 11 12 12 12 15 17 16 16 17 16 17 14 8 8 7 6 6 6
12 19 9 1 6 6 11 14 6 8 5 11 11 13 21 7 6 11 15 16 15 12 14 14 12 11 13 13 14 13 15 16 15 17 16 18 18 14 14 10 9 8 6 5
12 10 16 13 10 7 30 13 3 10 7 10 5 14 9 13 19 21 12 9 6 9 11 14 15 13 14 15 14 15 15 16 15 16 17 16 15 10 10 9 8 8 8 8
11 15 3 9 14 15 7 16 8 5 4 3 7 10 10 9 10 11 12 9 10 10 9 14 9 10 10 10 14 15 14 14 14 16 13 13 12 12 11 9 9 7 6 6
2 4 6 5 5 14 16 10 12 4 6 4 7 8 13 12 19 15 14 13 13 9 7 7 8 8 7 8 7 8 9 13 12 11 10 10 11 9 9 6 9 10 8 8
3 2 2 5 14 20 11 10 8 5 5 7 4 10 8 14 12 11 16 10 11 11 9 7 5 3 4 3 6 7 7 8 7 8 8 8 9 9 9 9 9 10 8 7
9 3 10 11 3 4 18 19 21 7 5 4 0 16 4 9 7 3 9 7 6 8 8 5 4 3 2 2 4 6 6 7 7 6 6 7 6 6 6 7 5 5 8 7
13 7 4 3 7 10 6 19 24 15 1 11 7 14 4 4 6 6 12 11 7 8 8 7 5 7 6 4 3 4 4 5 5 5 6 5 5 5 4 3 1 1 2 3
15 4 11 18 9 7 10 19 25 24 15 13 19 34 13 6 6 5 7 8 7 7 8 7 6 6 6 5 5 5 5 5 5 6 6 7 6 6 5 5 5 5 5 5
9 9 11 20 16 5 12 13 21 29 30 26 33 32 25 9 6 7 7 5 5 6 6 7 7 7 6 7 7 7 6 7 6 7 6 6 6 6 6 6 5 5 5 5
0 1 8 22 22 15 15 14 11 23 25 24 29 27 10 15 5 5 8 9 8 8 8 8 7 8 8 8 7 6 7 6 6 7 7 7 7 7 6 6 6 7 6 5
7 2 2 6 19 19 24 26 21 18 27 27 27 38 6 7 10 10 8 10 11 10 13 12 12 10 8 9 9 9 8 7 7 7 7 7 6 7 6 6 6 6 6 5
6 6 2 5 11 18 14 18 23 23 29 30 27 21 20 12 13 11 12 14 14 11 11 11 10 8 8 6 7 7 7 7 8 7 7 7 7 7 6 6 6 6 5 5
4 4 3 4 4 11 5 9 17 21 34 35 36 34 7 3 4 10 14 12 18 18 13 9 7 6 6 8 8 8 8 7 7 7 7 7 7 7 6 5 6 5 5 4
6 2 3 3 2 6 5 5 8 9 19 21 30 34 25 9 7 22 9 9 10 9 9 10 9 7 8 7 8 9 7 7 8 8 8 7 7 7 6 6 6 3 4 5
7 6 11 8 5 10 11 6 6 13 19 23 24 28 15 17 29 8 10 10 10 10 13 9 8 11 9 8 8 8 8 8 7 7 8 7 6 6 6 5 4 5 7 7
10 8 6 5 4 11 4 1 15 9 10 8 6 20 14 26 28 17 12 12 11 11 11 10 11 9 8 8 9 8 8 7 7 8 9 7 7 5 5 9 6 7 6 7
4 8 6 10 11 6 5 6 11 4 4 7 8 8 9 20 22 16 10 10 10 13 12 9 12 10 5 4 5 9 7 10 10 9 8 7 7 6 6 8 7 6 4 4
5 5 4 2 6 10 9 8 10 9 8 7 4 5 8 10 14 12 9 8 8 8 10 9 12 10 8 5 5 6 12 11 12 11 9 8 9 7 6 5 4 4 3 4
6 5 6 11 8 9 16 12 10 13 4 6 7 7 8 6 13 9 6 7 8 10 8 9 12 11 10 8 8 9 12 13 12 11 9 8 8 8 8 7 5 5 3 4
6 11 8 11 8 6 7 9 6 6 7 10 9 9 8 5 13 6 7 8 10 10 9 9 9 11 10 9 9 9 10 12 15 12 8 7 7 7 7 9 10 17 16 18
Wind_Direction
186 198 204 204 213 219 149 197 225 174 206 175 233 247 240 216 204 239 241 233 232 228 237 215 207 195 186 191 189 194 190 196 181 189 191 198 211 206 211 206 198 197 200 198
229 211 214 216 214 225 229 213 231 274 198 181 257 253 251 244 222 217 225 230 227 242 231 224 197 195 199 200 202 200 202 193 193 195 203 195 192 209 210 201 207 204 203 203
224 228 221 206 208 218 229 223 200 224 135 213 318 263 258 251 234 228 234 235 225 221 231 229 206 203 199 208 205 204 202 198 197 196 185 124 106 77 188 206 212 209 203 205
230 229 216 223 215 204 218 200 196 198 175 246 153 275 247 229 231 223 229 229 232 219 229 231 221 211 201 210 205 210 202 198 196 193 191 200 210 218 217 216 211 206 206 215
215 267 218 242 222 195 227 187 186 176 202 205 220 268 253 193 230 239 221 234 232 226 222 227 225 212 207 207 203 202 202 200 196 193 197 199 212 220 215 202 191 209 207 214
249 40 272 223 242 203 148 185 146 152 202 233 218 216 224 219 212 234 221 231 227 222 223 231 222 207 209 205 198 192 194 204 197 195 200 200 212 214 202 202 202 200 204 205
221 237 217 221 215 197 211 179 190 195 204 235 189 211 246 250 245 229 229 230 230 219 225 222 201 198 201 192 192 185 190 202 198 196 198 206 213 209 213 205 204 197 199 199
213 225 181 191 218 222 203 194 192 194 182 226 134 231 239 228 240 242 238 239 241 237 228 226 216 206 202 199 191 189 190 202 193 196 203 210 211 212 215 204 199 209 208 208
187 238 131 181 193 212 197 206 171 103 351 76 199 274 303 274 273 260 257 248 243 240 239 232 213 203 201 191 191 190 190 199 196 198 200 205 207 207 209 203 194 203 207 199
261 281 190 213 192 227 224 187 192 177 168 231 245 261 236 209 223 241 237 226 235 245 260 252 231 215 205 193 188 185 190 197 195 193 192 196 199 198 207 176 196 201 205 199
120 138 286 132 199 209 210 209 224 192 168 198 229 249 198 201 221 224 244 229 221 222 223 223 228 218 187 162 184 196 186 179 179 179 177 174 187 192 192 200 207 210 208 198
185 179 248 233 250 302 228 223 213 227 202 231 237 258 201 216 235 334 292 293 217 221 202 190 216 185 175 159 149 181 172 178 186 176 173 185 168 172 186 203 204 192 210 207
174 202 226 285 242 222 241 238 225 206 223 208 205 250 190 253 267 236 248 258 223 198 166 169 183 186 182 178 148 138 156 178 169 161 158 152 162 169 188 180 141 158 233 233
168 204 215 228 235 160 213 230 226 209 218 225 223 250 228 205 234 274 241 247 228 200 179 189 178 199 176 174 173 163 154 154 147 143 142 139 134 129 121 102 89 74 55 53
174 231 210 244 258 205 209 216 230 217 217 217 233 230 236 250 237 233 224 186 185 181 175 200 200 196 189 167 167 164 164 155 144 127 121 122 115 111 113 111 104 87 72 62
100 310 242 246 236 235 242 225 236 266 224 230 250 259 233 218 246 208 216 175 187 194 205 200 198 188 189 182 176 160 156 152 140 133 133 130 123 121 114 104 98 93 84 72
157 102 323 292 251 237 242 234 225 236 254 227 235 237 143 207 219 226 207 207 197 192 195 192 194 197 197 184 166 172 158 142 140 135 133 130 125 118 117 120 118 112 99 94
147 130 163 275 303 214 237 221 217 226 239 241 247 255 223 202 215 217 212 203 202 197 193 191 188 191 194 172 159 142 145 149 143 141 136 130 129 129 138 124 113 100 85 89
122 133 170 231 244 282 246 226 185 190 238 220 230 243 216 7 77 259 218 207 204 201 193 191 165 165 160 164 158 145 151 146 140 147 144 145 141 136 134 129 114 95 101 86
145 216 153 129 289 292 294 282 207 206 264 210 223 237 225 123 229 237 189 183 218 187 169 164 172 145 149 166 149 145 157 154 167 155 149 145 145 136 147 136 113 89 84 98
167 186 206 208 231 262 263 274 181 159 234 240 221 233 197 203 222 220 171 214 207 192 178 154 160 168 171 149 147 156 155 177 150 133 138 134 135 142 134 113 94 114 112 104
180 181 187 198 204 281 226 3 189 264 336 301 228 233 210 221 232 223 216 212 180 171 158 164 158 157 150 154 151 155 164 139 129 135 134 135 130 128 127 118 115 111 111 111
223 200 185 186 207 227 212 220 282 104 344 344 333 338 268 242 235 224 216 197 189 177 165 162 162 145 129 142 156 148 150 133 131 131 136 122 111 111 119 115 112 100 108 119
240 196 216 238 231 236 263 251 237 254 250 238 227 294 315 273 253 228 201 189 173 158 168 148 142 150 159 170 149 134 143 138 138 135 133 124 118 112 91 85 82 99 100 106
203 151 220 256 292 302 278 264 263 292 266 251 253 233 248 280 273 242 212 183 170 165 151 160 163 159 157 151 137 145 141 142 131 127 122 119 119 113 97 75 87 94 65 86
196 223 228 254 216 232 261 286 295 244 276 292 277 273 264 241 260 216 210 171 161 163 153 146 139 138 145 142 134 143 146 140 133 128 133 136 128 116 116 115 97 79 87 92